Location: Newark
(35.8833°N, 14.5000°E)
Time: 12:27:08
(UTC+00:00)

Altair - Pass Details

Date: 23 November 2019
Orbit: 1502 x 1682 km, 47.2° (Epoch: 06 December)

Event Time Altitude Azimuth Distance (km) Brightness Sun altitude
Rises 00:14:39 0° 228° (SW) 4,686 - -65.4°
Reaches altitude 10° 00:17:43 10° 228° (SW) 3,687 - -64.9°
Maximum altitude 00:26:58 81° 142° (SE) 1,523 - -63.3°
Exits shadow 00:35:44 12° 57° (ENE) 3,524 9.7 -61.7°
Drops below altitude 10° 00:36:08 10° 57° (ENE) 3,655 9.8 -61.7°
Sets 00:39:10 0° 57° (ENE) 4,645 10.4 -61.1°
